User: anonymous   Login
Location: Unspecified
(0.0000°N, 0.0000°E)
Time: 20:16:50
(UTC+00:00)
Language:

GEESAT 2-08 - Orbit

View from above orbital plane
View from above orbital plane
View from above satellite
View from above satellite

Ground track
Ground track

The orbit is defined by the following mean orbital elements,

1 58912U          26145.60218661 +.00000000 +00000-0 +22775-3 0 00002
2 58912  49.9894  97.8383 0004243 266.3619  93.6833 14.83150587    08
Epoch (UTC): 25 May 2026 14:27:08
Eccentricity: 0.0004243
inclination: 49.9894°
perigee height: 616 km
apogee height: 622 km
right ascension of ascending node: 97.8383°
argument of perigee: 266.3619°
revolutions per day: 14.83150587
mean anomaly at epoch: 93.6833°

The dashed part of the orbit path shows where the satellite is in the earth's shadow,  

DLR